[[{"header":{"parameterUnit":"m.s-1","parameterCategory":1,"la1":30.2992,"la2":30.254,"lo1":-89.0895,"lo2":-89.0443,"dy":0.0025,"dx":0.0025,"nx":19,"ny":19,"refTime":"2026-04-21T21:00:00:Z","depth":0,"parameterNumber":2,"parameterNumberName":"U-component_of_WINDS"},"data":[0,0,0,-2.923,-2.9232,-2.9361,-2.9362,-2.9531,-2.9532,0,0,0,0,0,0,0,0,0,0,0,-2.9194,-2.9195,-2.9229,-2.9233,-2.9361,-2.9362,-2.9531,-2.9532,0,0,0,0,0,0,0,0,0,0,0,-2.9193,-2.9194,-2.9196,-2.9233,-2.9361,-2.9362,-2.953,-2.9432,0,0,0,0,0,0,0,0,0,0,-2.9306,-2.9275,-2.9194,-2.9196,-2.9234,-2.9361,-2.9362,-2.9427,-2.9438,-2.9474,0,-2.9507,0,-2.9522,-2.9544,-2.9544,0,0,0,-2.9231,-2.9265,-2.9298,-2.9196,-2.9235,-2.9361,-2.9303,-2.9433,-2.9445,-2.9489,-2.9509,-2.9515,-2.9525,-2.9545,-2.9546,-2.9758,-2.9759,0,0,-2.9224,-2.9218,-2.929,-2.9306,-2.9286,-2.9299,-2.9307,-2.944,-2.9462,-2.951,-2.9519,-2.9528,-2.9546,-2.9547,-2.9757,-2.9759,0,0,0,-2.9205,-2.9213,-2.9243,-2.9299,-2.9322,-2.9303,-2.9312,-2.9456,-2.9466,-2.9521,-2.953,-2.9547,-2.9549,-2.9756,-2.9758,-2.9803,0,0,0,-2.92,-2.9202,-2.9239,-2.9237,-2.932,-2.9391,-2.9325,-2.9457,-2.9472,-2.9529,-2.9547,-2.9551,-2.9755,-2.9757,-2.98,-2.9826,0,0,0,-2.9184,-2.92,-2.9219,-2.9237,-2.9292,-2.9389,-2.9407,-2.9461,-2.9478,-2.9545,-2.9551,-2.9754,-2.9757,-2.9796,-2.982,-2.9879,0,0,0,-2.9166,-2.9259,-2.922,-2.9327,-2.9291,-2.9416,-2.9406,-2.95,-2.9562,-2.9548,-2.9755,-2.9758,-2.9795,-2.9817,-2.9875,-2.9927,-2.9948,0,0,-2.928,-2.9272,-2.9336,-2.9305,-2.9435,-2.9397,-2.9535,-2.9598,-2.9611,-2.9709,-2.9714,-2.9801,-2.982,-2.9878,-3.0069,-3.0086,0,0,0,-2.937,-2.9415,-2.9451,-2.951,-2.956,-2.9605,-2.9648,-2.9672,-2.9755,-2.966,-2.9839,-2.985,-2.9885,-2.991,-2.9924,-2.9953,-2.9769,-2.9769,-2.9769,-2.9522,-2.9532,-2.9637,-2.9663,-2.972,-2.9763,-2.981,-2.9849,-2.9844,-2.9886,-2.9915,-3.0029,-3.0058,-3.0069,-3.0099,-2.9943,-2.9944,-2.9944,-2.9944,-2.9689,-2.9754,-2.9743,-2.9841,-2.9852,-2.9935,-2.998,-2.9973,-3.0051,-3.0009,-3.0039,-2.9991,-3.0087,-3.0114,-2.9947,-2.9947,-2.9946,-2.9946,-2.9946,-2.9789,-2.9822,-2.9848,-2.9934,-2.9999,-3.0022,-3.0097,-3.0104,-3.0111,-3.0142,-3.0173,-3.0172,-3.0171,-3.0156,-3.0157,-3.0157,-3.0157,-3.0158,-3.0158,-2.9882,-2.991,-2.9973,-3.0033,-3.0071,-3.0123,-3.0166,-3.0204,-3.0248,-3.0248,-3.0248,-3.0237,-3.0094,-3.0057,-3.0164,-3.0163,-3.0162,-3.0162,-3.0161,-3.0046,-3.001,-3.0106,-3.0144,-3.0215,-3.0279,-3.0287,-3.0363,-3.0396,-3.0433,-3.0416,-3.0309,-3.0302,-3.0291,-3.0261,-3.0414,-3.0414,-3.0414,-3.0414,-3.013,-3.0127,-3.0227,-3.0287,-3.0347,-3.0363,-3.0472,-3.0507,-3.0537,-3.0558,-3.0537,-3.0498,-3.0486,-3.0486,-3.0471,-3.0442,-3.0638,-3.0638,-3.0639,-3.0232,-3.0234,-3.0325,-3.0353,-3.0409,-3.0457,-3.0559,-3.0629,-3.0656,-3.0648,-3.0574,-3.0565,-3.0501,-3.048,-3.0469,-3.0445,-3.0394,0,0]},{"header":{"parameterUnit":"m.s-1","parameterCategory":1,"la1":30.2992,"la2":30.254,"lo1":-89.0895,"lo2":-89.0443,"dy":0.0025,"dx":0.0025,"nx":19,"ny":19,"refTime":"2026-04-21T21:00:00:Z","depth":0,"parameterNumber":3,"parameterNumberName":"V-component_of_WINDS"},"data":[0,0,0,3.6995,3.6997,3.7059,3.7059,3.7151,3.7152,0,0,0,0,0,0,0,0,0,0,0,3.6987,3.6988,3.6995,3.6997,3.7059,3.7059,3.7151,3.7152,0,0,0,0,0,0,0,0,0,0,0,3.6986,3.6988,3.6989,3.6997,3.7059,3.7059,3.715,3.7099,0,0,0,0,0,0,0,0,0,0,3.7036,3.7038,3.6987,3.6989,3.6998,3.7059,3.7059,3.7096,3.7102,3.7129,0,3.7157,0,3.7156,3.7159,3.7159,0,0,0,3.6989,3.7034,3.7042,3.6989,3.6998,3.7059,3.7029,3.7099,3.7106,3.7137,3.7158,3.7161,3.7158,3.716,3.716,3.7344,3.7345,0,0,3.6986,3.7003,3.7037,3.7047,3.704,3.7027,3.7031,3.7103,3.7127,3.7159,3.7163,3.7159,3.716,3.7161,3.7343,3.7345,0,0,0,3.6981,3.7001,3.7007,3.7043,3.7053,3.7029,3.7033,3.7124,3.7124,3.7164,3.716,3.7161,3.7162,3.7342,3.7344,3.742,0,0,0,3.6979,3.6998,3.7006,3.7016,3.7052,3.709,3.7053,3.7119,3.7127,3.716,3.7161,3.7163,3.734,3.7343,3.7415,3.7452,0,0,0,3.6979,3.6998,3.701,3.7017,3.7045,3.7088,3.7093,3.712,3.7125,3.7159,3.7164,3.7339,3.7342,3.741,3.7445,3.7504,0,0,0,3.6984,3.7078,3.7012,3.7114,3.7044,3.7136,3.7092,3.7159,3.7198,3.7161,3.7341,3.7343,3.7409,3.744,3.75,3.7557,3.7583,0,0,3.7111,3.7093,3.7152,3.7095,3.7203,3.7125,3.7243,3.7262,3.7249,3.7313,3.7317,3.7416,3.7444,3.7503,3.7724,3.7744,0,0,0,3.7198,3.724,3.7265,3.7303,3.7321,3.7338,3.7337,3.7344,3.7397,3.7286,3.7454,3.747,3.7504,3.753,3.7548,3.7575,3.7357,3.7356,3.7356,3.7401,3.738,3.7475,3.7462,3.7499,3.7498,3.7525,3.7534,3.7502,3.7542,3.756,3.7696,3.7728,3.7741,3.777,3.759,3.759,3.759,3.7591,3.7583,3.7639,3.7594,3.767,3.7647,3.771,3.7712,3.7687,3.7741,3.7681,3.771,3.7645,3.7764,3.7788,3.7596,3.7595,3.7594,3.7594,3.7593,3.7712,3.7735,3.7742,3.7794,3.7837,3.7819,3.7873,3.7851,3.7829,3.7858,3.7874,3.7872,3.7867,3.7868,3.7868,3.7869,3.7869,3.7869,3.787,3.7842,3.7848,3.7897,3.7923,3.7944,3.7968,3.7967,3.7986,3.8001,3.798,3.798,3.7943,3.7781,3.7739,3.7877,3.7875,3.7875,3.7874,3.7873,3.8032,3.7986,3.8061,3.8082,3.811,3.8152,3.8122,3.8163,3.8176,3.8203,3.816,3.8044,3.8024,3.801,3.7975,3.8165,3.8165,3.8165,3.8165,3.814,3.8128,3.8199,3.8234,3.8265,3.8246,3.8329,3.8329,3.8321,3.8327,3.8296,3.8249,3.8236,3.8223,3.8204,3.8171,3.8407,3.8408,3.8408,3.8255,3.8245,3.8321,3.8313,3.8333,3.8349,3.8427,3.8467,3.8448,3.8417,3.833,3.832,3.8244,3.822,3.8187,3.8158,3.8098,0,0]}]]